Content
SEND FEEDBACK

Daily
Averages
Monthly
Summary
United States of America

INARAJAN, GUAM


Home > North America > United States > Guam
Elevation: 280 feet     Latitude: 13 18N     Longitude: 144 44E

WEATHER
 
SELECT A DAY
Number of Records: 350,330;   Date Range: 1/1/95 - 10/1/14
 
SHARE

PRINT THIS DATA

[ ← Previous Day ]
WEATHER ALMANAC - MAY 11, 2013
[ Next Day → ]
[ °C ]   °F
Weather ElementAverageHighLow
Temperature80.9 °F86 °F (12:39 pm)75.2 °F (11:12 pm)
Dewpoint75.4 °F77 °F (9:45 am)73.4 °F (4:34 pm)
Humidity83.8 %100 % (11:12 pm)70 % (11:55 am)
Barometer29.81 in29.86 in (10:38 pm)29.76 in (2:55 am)
Wind Speed9.8 mph15 mph (10:40 pm)
Weather ElementAverage
Visibility8.9 mi
Wind DirectionENE (77.9 °)

Weather ElementTotal
Precipitation0.12 in
Cooling Degree Days15.6 (Base 65)
Growing Degree Days30.6 (Base 50)
Averaged from 100 records on May 11, 2013
WEATHER CONDITIONS BREAKOUT
WIND DIRECTION BREAKOUT
WEATHER BY HOUR - MAY 11, 2013
[ °C ]   °F
Local TimeTemperatureDewpointHumidityBarometerVisibilityWind DirectionWind SpeedGust SpeedPrecipitationEventsConditions
12:55 AM78.3 °F74.7 °F89 %29.78 in10.0 miENE (60°)11.5 mphScattered Clouds
1:55 AM78.6 °F74.5 °F87 %29.78 in10.0 miENE (60°)9.2 mphMostly Cloudy
2:55 AM78.1 °F73.6 °F86 %29.76 in10.0 miENE (60°)8.1 mphPartly Cloudy
3:55 AM77.7 °F74.3 °F89 %29.76 in10.0 miENE (60°)5.8 mphClear
4:54 AM78.8 °F75.2 °F89 %29.77 in10.0 miENE (60°)6.9 mphMostly Cloudy
4:55 AM78.3 °F74.8 °F89 %29.77 in10.0 miENE (60°)5.8 mphMostly Cloudy
5:04 AM78.8 °F75.2 °F89 %29.77 in10.0 miENE (60°)8.1 mphScattered Clouds
5:36 AM78.8 °F75.2 °F89 %29.78 in10.0 miENE (60°)5.8 mphLight Drizzle
5:38 AM78.8 °F75.2 °F89 %29.78 in10.0 miENE (60°)6.9 mphClear
5:55 AM77.9 °F74.5 °F89 %29.78 in10.0 miNE (50°)8.1 mph0.00 inClear
6:55 AM79.7 °F75.0 °F86 %29.79 in10.0 miENE (70°)6.9 mphClear
7:55 AM81.0 °F74.7 °F81 %29.81 in10.0 miEast (80°)6.9 mphPartly Cloudy
8:15 AM82.4 °F75.2 °F79 %29.82 in10.0 miENE (70°)8.1 mphMostly Cloudy
8:16 AM82.4 °F75.2 °F79 %29.82 in10.0 miENE (70°)8.1 mphMostly Cloudy
8:21 AM82.4 °F75.2 °F79 %29.82 in10.0 miEast (90°)4.6 mphMostly Cloudy
8:25 AM82.4 °F75.2 °F79 %29.83 in10.0 miENE (70°)6.9 mphMostly Cloudy
8:28 AM82.4 °F75.2 °F79 %29.82 in10.0 miENE (70°)8.1 mphMostly Cloudy
8:31 AM82.4 °F75.2 °F79 %29.82 in10.0 miENE (60°)8.1 mphOvercast
8:37 AM82.4 °F75.2 °F79 %29.82 in10.0 miEast (80°)6.9 mphOvercast
8:49 AM84.2 °F75.2 °F74 %29.83 in10.0 miENE (70°)6.9 mphMostly Cloudy
8:55 AM83.8 °F75.9 °F77 %29.82 in10.0 miENE (70°)10.4 mphScattered Clouds
9:45 AM84.2 °F77.0 °F79 %29.83 in10.0 miENE (70°)10.4 mphMostly Cloudy
9:47 AM84.2 °F77.0 °F79 %29.83 in10.0 miEast (90°)10.4 mphMostly Cloudy
9:48 AM84.2 °F77.0 °F79 %29.83 in10.0 miEast (80°)10.4 mphMostly Cloudy
9:51 AM84.2 °F77.0 °F79 %29.83 in10.0 miEast (80°)8.1 mphScattered Clouds
9:55 AM84.6 °F75.7 °F75 %29.83 in10.0 miEast (80°)9.2 mphScattered Clouds
10:55 AM84.2 °F75.2 °F74 %29.82 in10.0 miENE (70°)10.4 mphMostly Cloudy
11:55 AM84.9 °F74.3 °F70 %29.81 in10.0 miENE (70°)8.1 mphMostly Cloudy
12:07 PM84.2 °F77.0 °F79 %29.81 in10.0 miENE (70°)9.2 mphMostly Cloudy
12:17 PM84.2 °F77.0 °F79 %29.81 in10.0 miENE (70°)9.2 mphMostly Cloudy
12:19 PM84.2 °F77.0 °F79 %29.81 in10.0 miENE (70°)9.2 mphMostly Cloudy
12:22 PM84.2 °F77.0 °F79 %29.81 in10.0 miENE (60°)10.4 mphOvercast
12:26 PM84.2 °F77.0 °F79 %29.81 in10.0 miENE (70°)10.4 mphMostly Cloudy
12:36 PM84.2 °F75.2 °F74 %29.81 in10.0 miEast (80°)10.4 mphMostly Cloudy
12:37 PM84.2 °F75.2 °F74 %29.81 in10.0 miEast (80°)10.4 mphMostly Cloudy
12:39 PM86.0 °F75.2 °F70 %29.81 in10.0 miENE (70°)10.4 mphMostly Cloudy
12:55 PM85.1 °F76.3 °F75 %29.81 in10.0 miENE (70°)12.7 mphMostly Cloudy
1:02 PM84.2 °F75.2 °F74 %29.80 in10.0 miEast (80°)10.4 mphMostly Cloudy
1:12 PM84.2 °F75.2 °F74 %29.80 in10.0 miENE (60°)11.5 mphMostly Cloudy
1:37 PM84.2 °F75.2 °F74 %29.79 in10.0 miNE (50°)11.5 mphMostly Cloudy
1:43 PM84.2 °F75.2 °F74 %29.79 in10.0 miEast (90°)10.4 mphScattered Clouds
1:46 PM84.2 °F75.2 °F74 %29.79 in10.0 miENE (60°)10.4 mphMostly Cloudy
1:51 PM84.2 °F75.2 °F74 %29.79 in10.0 miNE (50°)10.4 mphMostly Cloudy
1:55 PM84.7 °F75.6 °F74 %29.79 in10.0 miENE (70°)10.4 mphMostly Cloudy
2:05 PM84.2 °F75.2 °F74 %29.78 in10.0 miNE (50°)10.4 mphMostly Cloudy
2:07 PM84.2 °F75.2 °F74 %29.78 in10.0 miENE (60°)10.4 mphMostly Cloudy
2:33 PM84.2 °F75.2 °F74 %29.78 in10.0 miENE (60°)11.5 mphMostly Cloudy
2:34 PM84.2 °F75.2 °F74 %29.78 in10.0 miENE (60°)12.7 mphMostly Cloudy
2:48 PM82.4 °F75.2 °F79 %29.78 in10.0 miNE (50°)10.4 mphMostly Cloudy
2:52 PM82.4 °F75.2 °F79 %29.78 in10.0 miENE (60°)10.4 mphOvercast
2:55 PM83.1 °F75.7 °F78 %29.78 in10.0 miENE (60°)12.7 mphOvercast
3:04 PM82.4 °F75.2 °F79 %29.77 in10.0 miENE (70°)11.5 mphOvercast
3:07 PM82.4 °F75.2 °F79 %29.77 in10.0 miNE (50°)11.5 mphOvercast
3:33 PM82.4 °F75.2 °F79 %29.77 in10.0 miNE (40°)11.5 mphOvercast
3:37 PM82.4 °F75.2 °F79 %29.77 in10.0 miNE (50°)11.5 mphRainLight Rain
3:39 PM82.4 °F75.2 °F79 %29.77 in9.0 miENE (60°)12.7 mphLight Drizzle
3:51 PM82.4 °F75.2 °F79 %29.77 in10.0 miENE (60°)11.5 mphOvercast
3:55 PM81.5 °F75.7 °F83 %29.76 in10.0 miENE (60°)11.5 mph0.00 inOvercast
4:00 PM82.4 °F75.2 °F79 %29.76 in10.0 miENE (60°)12.7 mphMostly Cloudy
4:06 PM82.4 °F75.2 °F79 %29.77 in10.0 miENE (60°)11.5 mphOvercast
4:16 PM80.6 °F77.0 °F89 %29.76 in9.0 miENE (60°)11.5 mphRainLight Rain
4:34 PM78.8 °F73.4 °F83 %29.77 in2.5 miENE (70°)3.5 mphRainRain
4:38 PM78.8 °F73.4 °F83 %29.77 in3.0 miENE (70°)4.6 mphRainLight Rain
4:47 PM80.6 °F77.0 °F89 %29.77 in10.0 miNE (50°)11.5 mphOvercast
4:55 PM80.1 °F76.8 °F90 %29.77 in10.0 miNE (40°)9.2 mph0.03 inOvercast
4:57 PM80.6 °F77.0 °F89 %29.77 in10.0 miNE (40°)9.2 mphOvercast
5:03 PM80.6 °F77.0 °F89 %29.77 in10.0 miNE (40°)10.4 mphMostly Cloudy
5:55 PM79.7 °F75.4 °F87 %29.78 in10.0 miNE (50°)9.2 mphPartly Cloudy
6:40 PM78.8 °F77.0 °F94 %29.80 in10.0 miENE (70°)12.7 mphMostly Cloudy
6:47 PM78.8 °F75.2 °F89 %29.81 in10.0 miENE (70°)9.2 mphMostly Cloudy
6:54 PM78.8 °F75.2 °F89 %29.81 in10.0 miEast (80°)8.1 mphScattered Clouds
6:55 PM78.3 °F75.7 °F92 %29.81 in10.0 miEast (80°)6.9 mphScattered Clouds
7:55 PM78.6 °F75.2 °F89 %29.82 in10.0 miEast (90°)6.9 mphOvercast
8:55 PM78.8 °F74.7 °F87 %29.84 in10.0 miENE (70°)8.1 mphScattered Clouds
9:06 PM78.8 °F75.2 °F89 %29.84 in10.0 miENE (70°)9.2 mphMostly Cloudy
9:32 PM78.8 °F75.2 °F89 %29.84 in10.0 miEast (90°)8.1 mphScattered Clouds
9:55 PM78.8 °F73.9 °F85 %29.85 in10.0 miEast (90°)8.1 mphClear
10:26 PM78.8 °F75.2 °F89 %29.85 in10.0 miEast (80°)9.2 mphMostly Cloudy
10:30 PM78.8 °F75.2 °F89 %29.85 in10.0 miEast (90°)6.9 mphScattered Clouds
10:33 PM78.8 °F75.2 °F89 %29.85 in10.0 miEast (90°)9.2 mphMostly Cloudy
10:38 PM78.8 °F75.2 °F89 %29.86 in10.0 miESE (110°)13.8 mphMostly Cloudy
10:40 PM78.8 °F75.2 °F89 %29.86 in10.0 miESE (110°)15.0 mphMostly Cloudy
10:41 PM78.8 °F75.2 °F89 %29.86 in10.0 miESE (110°)15.0 mphMostly Cloudy
10:43 PM78.8 °F75.2 °F89 %29.86 in9.0 miESE (110°)13.8 mphMostly Cloudy
10:44 PM78.8 °F75.2 °F89 %29.86 in8.0 miESE (110°)13.8 mphRainLight Rain
10:50 PM77.0 °F75.2 °F94 %29.86 in2.5 miESE (120°)11.5 mphRainLight Rain
10:51 PM77.0 °F75.2 °F94 %29.86 in2.0 miESE (120°)12.7 mphRainHeavy Rain
10:53 PM77.0 °F75.2 °F94 %29.86 in1.8 miESE (120°)12.7 mphRainHeavy Rain
10:55 PM77.0 °F75.2 °F94 %29.86 in1.8 miSE (130°)10.4 mph0.06 inRainRain
10:56 PM77.0 °F75.2 °F94 %29.86 in1.5 miSE (130°)11.5 mphRainRain
10:58 PM77.0 °F75.2 °F94 %29.86 in1.8 miSE (130°)11.5 mphRainRain
11:00 PM77.0 °F75.2 °F94 %29.86 in2.0 miSE (130°)9.2 mphRainRain
11:02 PM77.0 °F75.2 °F94 %29.86 in2.5 miSE (130°)11.5 mphRainRain
11:04 PM77.0 °F75.2 °F94 %29.86 in3.0 miSE (130°)11.5 mphRainRain
11:06 PM77.0 °F75.2 °F94 %29.86 in4.0 miSE (130°)10.4 mphRainLight Rain
11:08 PM77.0 °F75.2 °F94 %29.86 in5.0 miSE (130°)10.4 mphRainLight Rain
11:10 PM77.0 °F75.2 °F94 %29.86 in6.0 miSE (130°)10.4 mphMostly Cloudy
11:12 PM75.2 °F75.2 °F100 %29.86 in7.0 miSE (130°)9.2 mphRainLight Rain
11:21 PM75.2 °F75.2 °F100 %29.86 in10.0 miESE (120°)9.2 mphScattered Clouds
11:55 PM76.5 °F74.7 °F94 %29.86 in10.0 miSE (130°)5.8 mph0.03 inOvercast
Hourly data recorded from PGUA, located miles away from Inarajan, Guam







STORIES FROM OUR PARTNERS